Regional Weather Roundup
Issued by NWS Nashville, TN

Home | Current Version | Previous Version | Text Only | Print | Product List | Glossary On
Versions: 1 2 3 4 5 6 7 8 9 10 11 12 13 14 15 16 17 18 19 20 21 22 23 24 25 26 27 28 29 30 31 32 33 34 35 36 37 38 39 40 41 42 43 44 45 46 47 48 49 50
000
ASUS44 KOHX 220615
RWROHX
MIDDLE TENNESSEE HOURLY WEATHER ROUNDUP
NATIONAL WEATHER SERVICE NASHVILLE TN
100 AM CDT WED OCT 22 2014

NOTE: "FAIR" INDICATES FEW OR NO CLOUDS BELOW 12,000 FEET WITH
NO SIGNIFICANT WEATHER AND/OR OBSTRUCTIONS TO VISIBILITY.

* THESE REPORTS ARE NOT UNDER NWS QUALITY CONTROL AND MAY NOT
  REPORT WEATHER SUCH AS PRECIPITATION AND FOG.


TNZ005>011-023>034-057-059-062>066-078-080-220700
...NORTHERN MIDDLE TENNESSEE...

CITY           SKY/WX    TMP DP  RH WIND       PRES   REMARKS
CLARKSVILLE    CLEAR     48  42  80 N5        30.15F
CROSSVILLE     CLEAR     45  38  76 N3        30.11F
NASHVILLE      CLEAR     51  43  74 N5        30.14F
SMYRNA         CLEAR     45  41  86 CALM      30.15S
SPARTA         CLEAR     37  37 100 CALM      30.12R
$$
TNZ056-058-060-061-075>077-079-093>097-220700
...SOUTHERN MIDDLE TENNESSEE...

CITY           SKY/WX    TMP DP  RH WIND       PRES   REMARKS
COLUMBIA         N/A     46  46 100 CALM      30.11F
FAYETTEVILLE   CLEAR     48  43  81 NE8       30.10S
MCMINNVILLE    CLEAR     46  45  93 CALM      30.12S
SHELBYVILLE    CLEAR     48  43  81 N3        30.13S
TULLAHOMA      CLEAR     50  41  71 NE7       30.12S
WINCHESTER     CLEAR     43  43 100 CALM      30.11S
$$


...KEY TO REMARKS...
VSB - VISIBILITY IN MILES
WCI - WIND CHILL INDEX
HX  - HEAT INDEX




USA.gov is the U.S. government's official web portal to all federal, state and local government web resources and services.